Location: Hamburg
(53.5500°N, 10.0000°E)
Time: 08:08:06
(UTC+02:00)

A-11 Canister half - All Passes

Search period start: 30 July 2015 00:00
Search period end: 09 August 2015 00:00
Orbit: 1526 x 1683 km, 47.3° (Epoch: 29 July)

Date Brightness Start Highest point End Pass type
(mag) Time Alt. Az. Time Alt. Az. Time Alt. Az.
30 Jul - 05:45:01 10° SSE 05:49:02 13° SE 05:53:35 10° E daylight
30 Jul - 07:43:08 10° SSW 07:52:02 37° SSE 08:00:52 10° E daylight
30 Jul - 09:46:13 10° WSW 09:56:02 59° S 10:05:36 10° E daylight
30 Jul - 11:50:43 10° W 12:00:25 57° SSW 12:09:47 10° ESE daylight
30 Jul - 13:55:44 10° W 14:04:13 33° SW 14:12:19 10° SSE daylight
30 Jul - 16:05:33 10° WSW 16:06:53 10° WSW 16:07:34 10° SW daylight
31 Jul - 05:24:05 10° SSE 05:27:33 13° SE 05:31:37 10° ESE daylight
31 Jul - 07:21:42 10° SSW 07:30:30 36° SE 07:39:17 10° E daylight
31 Jul - 09:24:39 10° WSW 09:34:28 58° SSE 09:44:04 10° E daylight
31 Jul - 11:29:08 10° W 11:38:52 58° SSW 11:48:18 10° ESE daylight
31 Jul - 13:34:07 10° W 13:42:42 34° SW 13:50:57 10° SSE daylight
31 Jul - 15:42:44 10° WSW 15:45:27 11° SW 15:47:32 10° SW daylight
01 Aug - 05:03:17 10° SE 05:06:05 12° SE 05:09:32 10° ESE daylight
01 Aug - 07:00:17 10° SSW 07:08:59 35° SE 07:17:42 10° E daylight
01 Aug - 09:03:07 10° WSW 09:12:55 58° SSE 09:22:31 10° E daylight
01 Aug - 11:07:33 10° W 11:17:19 58° SSW 11:26:47 10° ESE daylight
01 Aug - 13:12:31 10° W 13:21:13 36° SW 13:29:34 10° SSE daylight
01 Aug - 15:20:29 10° WSW 15:24:00 12° SW 15:26:55 10° SW daylight
02 Aug - 04:42:42 10° SE 04:44:38 11° SE 04:47:14 10° ESE visible
02 Aug - 06:38:51 10° SSW 06:47:28 34° SE 06:56:07 10° E daylight
02 Aug - 08:41:33 10° WSW 08:51:22 57° SSE 09:00:59 10° E daylight
02 Aug - 10:45:58 10° W 10:55:47 59° S 11:05:17 10° ESE daylight
02 Aug - 12:50:53 10° W 12:59:43 37° SSW 13:08:11 10° SSE daylight
02 Aug - 14:58:25 10° W 15:02:33 13° SW 15:06:07 10° SSW daylight
03 Aug - 04:23:00 10° SE 04:23:10 10° ESE 04:24:04 10° ESE visible
03 Aug - 06:17:27 10° SSW 06:25:57 33° SE 06:34:32 10° E daylight
03 Aug - 08:20:01 10° WSW 08:29:49 56° SSE 08:39:26 10° E daylight
03 Aug - 10:24:23 10° W 10:34:13 60° S 10:43:46 10° ESE daylight
03 Aug - 12:29:17 10° W 12:38:12 38° SSW 12:46:47 10° SSE daylight
03 Aug - 14:36:27 10° W 14:41:06 14° SW 14:45:12 10° SSW daylight
04 Aug - 05:56:03 10° SSW 06:04:26 32° SE 06:12:55 10° E daylight
04 Aug - 07:58:30 10° WSW 08:08:15 56° SSE 08:17:53 10° E daylight
04 Aug - 10:02:48 10° W 10:12:40 60° S 10:22:16 10° ESE daylight
04 Aug - 12:07:41 10° W 12:16:42 39° SSW 12:25:22 10° SSE daylight
04 Aug - 14:14:33 10° W 14:19:39 15° SW 14:24:12 10° SSW daylight
05 Aug - 05:34:40 10° SSW 05:42:56 31° SE 05:51:19 10° E daylight
05 Aug - 07:36:57 10° WSW 07:46:43 55° SSE 07:56:21 10° E daylight
05 Aug - 09:41:14 10° W 09:51:07 61° S 10:00:45 10° ESE daylight
05 Aug - 11:46:05 10° W 11:55:11 41° SSW 12:03:57 10° SSE daylight
05 Aug - 13:52:42 10° W 13:58:12 16° SW 14:03:09 10° SSW daylight
06 Aug - 05:13:17 10° SSW 05:21:26 29° SE 05:29:43 10° E daylight
06 Aug - 07:15:25 10° SW 07:25:10 54° SSE 07:34:47 10° E daylight
06 Aug - 09:19:39 10° W 09:29:34 61° S 09:39:13 10° ESE daylight
06 Aug - 11:24:29 10° W 11:33:40 42° SSW 11:42:31 10° SE daylight
06 Aug - 13:30:53 10° W 13:36:44 17° SW 13:42:04 10° SSW daylight
07 Aug - 04:51:56 10° SSW 04:59:55 28° SE 05:08:05 10° E visible
07 Aug - 06:53:54 10° SW 07:03:36 53° SSE 07:13:14 10° E daylight
07 Aug - 08:58:05 10° W 09:08:00 61° S 09:17:41 10° ESE daylight
07 Aug - 11:02:53 10° W 11:12:09 43° SSW 11:21:06 10° SE daylight
07 Aug - 13:09:07 10° W 13:15:16 18° SW 13:20:56 10° SSW daylight
08 Aug - 04:30:34 10° S 04:38:25 27° SE 04:46:28 10° E visible
08 Aug - 06:32:23 10° SW 06:42:04 52° SSE 06:51:40 10° E daylight
08 Aug - 08:36:30 10° W 08:46:27 62° S 08:56:10 10° ESE daylight
08 Aug - 10:41:17 10° W 10:50:37 44° SSW 10:59:40 10° SE daylight
08 Aug - 12:47:22 10° W 12:53:48 19° SW 12:59:47 10° S daylight
